Helicity
297 205 168 218 258 257 319 356 402 263 202 178 130 90 19 95 205 250 261 255 200 173
365 369 134 153 211 201 222 227 242 288 278 229 186 141 171 143 210 218 227 206 164 176
336 283 403 245 175 141 182 231 270 304 268 239 212 223 217 149 124 228 229 168 152 145
296 338 496 360 18 144 182 240 266 332 252 274 249 244 270 202 163 210 202 196 288 140
323 290 304 263 212 127 151 223 263 322 247 268 288 333 280 267 186 221 153 47 74 44
364 325 366 431 416 329 76 150 208 273 290 247 281 306 317 279 244 193 88 54 56 39
314 346 301 333 372 372 325 100 150 184 247 315 261 254 287 316 243 93 15 57 53 76
220 316 289 266 274 285 396 307 142 130 199 247 357 204 268 260 257 179 122 68 99 99
221 244 269 269 247 192 270 307 262 83 177 290 312 248 175 289 258 240 195 175 176 184
205 270 273 270 254 180 225 243 273 154 113 188 255 306 291 199 280 291 267 253 223 221
211 276 305 294 274 240 197 206 183 197 42 162 172 303 352 367 221 244 254 292 250 185
203 296 400 406 351 325 275 298 221 103 59 118 88 114 165 385 291 256 255 283 286 246
159 162 339 438 371 329 273 349 369 235 183 65 102 90 90 175 310 350 229 266 253 272
103 157 201 420 398 423 398 349 474 408 335 406 307 262 259 105 169 223 193 267 273 250
Wind_Speed
77 70 75 64 59 59 57 50 44 46 44 42 41 46 45 68 73 69 69 68 66 59
72 74 82 75 69 59 59 57 47 54 50 45 44 44 47 43 71 69 71 70 67 67
74 70 77 80 71 62 60 57 58 48 54 51 49 47 46 42 47 71 77 67 69 71
65 70 74 83 85 69 62 64 68 49 52 54 52 50 50 47 43 54 65 74 70 68
65 66 68 75 59 64 71 66 63 60 47 57 56 59 54 54 53 46 46 45 62 63
65 67 69 72 74 81 77 77 72 70 78 58 59 56 59 58 56 56 53 50 48 48
66 68 68 69 69 75 78 82 81 77 76 62 55 64 62 60 66 61 59 63 59 59
67 69 71 70 71 72 77 78 89 90 91 80 72 60 72 66 66 66 68 65 68 64
67 69 70 72 74 75 78 80 83 93 98 89 83 95 67 72 68 71 70 71 66 69
67 68 70 73 75 78 82 86 91 96 87 99 90 73 65 67 79 72 74 76 76 80
67 68 69 72 75 79 82 87 91 96 106 91 95 91 84 73 84 85 82 81 81 81
71 72 74 76 78 79 82 87 89 95 104 99 90 91 94 81 83 86 87 88 83 81
71 71 73 75 77 77 77 81 85 83 82 95 100 95 97 94 89 92 90 84 87 83
69 70 70 72 73 73 72 72 76 76 66 70 74 80 86 84 86 80 95 93 93 89
Wind_Direction
263 266 257 244 244 245 241 240 230 219 220 217 212 222 200 245 241 240 242 242 245 246
268 265 258 245 247 247 246 243 232 233 229 222 224 220 226 227 244 244 244 243 245 246
270 270 265 262 246 248 247 242 242 235 231 228 215 228 231 230 242 242 246 246 246 246
281 273 269 264 251 247 248 244 246 238 224 228 220 218 227 233 235 246 251 243 248 246
282 282 278 269 271 254 250 248 246 243 233 233 231 230 226 229 241 235 229 230 243 244
287 284 281 279 267 268 259 250 247 247 246 238 235 230 234 233 239 241 231 219 225 230
290 286 286 282 279 274 262 253 248 249 251 247 239 239 237 236 241 239 235 240 242 244
295 291 288 285 280 279 269 264 250 251 251 253 252 242 243 239 237 236 240 240 245 245
304 297 293 288 284 279 274 269 264 253 252 253 255 251 237 240 238 238 239 241 242 247
314 302 296 292 287 281 276 272 267 259 258 253 257 255 240 226 243 241 241 242 245 251
315 311 302 298 290 284 279 273 268 264 255 258 256 256 253 251 243 248 247 247 248 250
318 314 308 301 295 290 282 275 270 266 259 263 258 260 259 258 249 250 250 250 249 249
322 320 314 305 301 293 287 279 273 273 269 260 260 264 265 261 256 258 255 252 252 250
325 323 322 314 310 302 292 285 277 270 274 271 269 271 268 263 259 265 258 254 252 253